Location: Most
(50.5330°N, 13.6500°E)
Time: 06:09:42
(UTC+01:00)

ISS - Visible Passes

Search period start: 10 February 2026 00:00
Search period end: 20 February 2026 00:00
Orbit: 414 x 429 km, 51.6° (Epoch: 9 February)

Date Brightness Start Highest point End Pass type
(mag) Time Alt. Az. Time Alt. Az. Time Alt. Az.
12 Feb -0.8 06:21:21 10° S 06:23:30 16° SE 06:25:38 10° E visible
13 Feb -0.6 05:35:49 10° SSE 05:36:40 11° SE 05:37:33 10° ESE visible
14 Feb -2.1 06:22:52 10° SW 06:25:54 33° SSE 06:28:57 10° E visible
15 Feb -1.6 05:36:22 11° SSW 05:38:59 24° SE 05:41:43 10° E visible
16 Feb -1.3 04:51:33 16° SSE 04:52:03 17° SE 04:54:16 10° E visible
16 Feb -3.4 06:25:07 10° WSW 06:28:25 64° SSE 06:31:45 10° ENE visible
17 Feb -3.0 05:39:35 22° SW 05:41:22 47° SSE 05:44:36 10° E visible
18 Feb -2.4 04:54:29 34° SE 04:54:29 34° SE 04:57:24 10° E visible
18 Feb -3.8 06:27:39 10° W 06:31:00 83° N 06:34:21 10° ENE visible
19 Feb -0.7 04:09:18 15° E 04:09:18 15° E 04:10:06 10° E visible
19 Feb -3.8 05:42:17 29° WSW 05:43:51 82° SSE 05:47:12 10° ENE visible
